Tracking 18987 objects as of 25-Feb-2018
HD Live streaming from Space Station
objects crossing your sky now

TIANYI 6 (TY 6)

Track TIANYI 6 (TY 6) now!
10-day predictions


NORAD ID: 43158
Int'l Code: 2018-008D
Perigee: 534.9 km
Apogee: 554.6 km
Inclination: 97.5 °
Period: 95.4 minutes
Semi major axis: 6915 km
RCS: Unknown
Launch date: January 19, 2018
Source: People's Republic of China (PRC)
Launch site: Jiuquan Satellite Launch Center, China (JSC)
aabbcc
Your satellite tracking list
Your tracking list is empty




NASA's NSSDC Master Catalog

Two Line Element Set (TLE):
1 43158U 18008D   18056.14691491  .00001076  00000-0  70887-4 0  9991
2 43158  97.5331 132.4387 0014260 158.5023 231.4153 15.09530735  5558
Source of the keplerian elements: AFSPC